Location: Karcze
(52.0945°N, 22.4786°E)
Time: 23:54:47
(UTC+00:00)

Transit 4A - Pass Details

Date: 06 August 2021
Orbit: 871 x 974 km, 66.8° (Epoch: 18 September)

Event Time Altitude Azimuth Distance (km) Brightness Sun altitude
Rises 01:08:10 0° 288° (WNW) 3,468 10.7 -13.7°
Reaches altitude 10° 01:11:23 10° 306° (NW) 2,527 10.2 -13.4°
Maximum altitude 01:15:33 20° 352° (N) 1,928 10.1 -13.0°
Drops below altitude 10° 01:19:45 10° 38° (NE) 2,538 11.7 -12.6°
Sets 01:23:00 0° 55° (NE) 3,488 12.6 -12.3°
